FENGYUN 1C DEB

Satellite information

Favourite Embed

Satellite Type and Status

DEBRISIN ORBIT

Key statistics

Satellite FENGYUN 1C DEB at a glance.

Uptime

9555

Days in orbit

Revolutions

≈ 14.4

Per day

Orbit

SSO

Sun Synchronous Orbit

Inclination

99.3

Latest

Satellite identification and parameters

Extended collection of information and parameters for FENGYUN 1C DEB.

Object identification

Identified? True

Debris? True

Object name: FENGYUN 1C DEB

International designator: 1999-025AWG

Object number (NORAD): 30846

Object ID (CCSDS): 30846

Country: PEOPLES REPUBLIC OF CHINA (PRC)

Current information (Y/N): Y

RCS size: SMALL

Orbital parameters

Period: 99.967 minutes

Inclination: 99.3118 deg

SMA: 7135.049 km

Apoapsis: 797.2 km

Periapsis: 716.628 km

RAAN: 346.4013 deg

Eccentricy: 0.0056462

Argument of periapsis: 83.0466 deg

Mean anomaly: 342.4749 deg

Mean motion: 14.40480385 rev/day

Mean motion (dot): 0.00001653 rev/day2

B* drag term: 0.00052598 1/REarth

Two-line elements (TLE)

Creation date: July 6, 2025, 6:05 p.m.

Reference frame: TEME

Reference center: EARTH

Epoch: July 6, 2025, 9:32 a.m. UTC

TLE line 0: 0 FENGYUN 1C DEB

TLE line 1: 1 30846U 99025AWG 25187.39790962 .00001653 00000-0 52598-3 0 9991

TLE line 2: 2 30846 99.3118 346.4013 0056462 83.0466 342.4749 14.40480385956353

Live tracking on map

Real-time ground track for satellite FENGYUN 1C DEB.

In-orbit conjunctions

A list of the most updated potential collisions computed for object FENGYUN 1C DEB.

Target Orbit TCA Probability of collision Miss distance Type
CZ-6A DEB SSO 2025-07-02 00:40:58 0.0001478279 48.0 (m) DEBRIS
CZ-2D R/B SSO 2025-03-11 00:42:01 0.0001313752 984.0 (m) ROCKET BODY
CZ-6A DEB LEO 2025-02-27 03:17:35 0.0002866083 508.0 (m) DEBRIS
SL-3 R/B LEO 2025-02-12 00:03:05 0.0002717454 689.0 (m) ROCKET BODY
CZ-6A DEB LEO 2025-01-22 21:11:09 0.000214375 784.0 (m) DEBRIS

Associated space launch

Chinese polar orbiting meteorological satellite

FENGYUN 1C DEB was lifted into orbit during the mission ‘Long March 4B | Feng Yun 1C’, on board a Long March 4B space rocket.

The launch took place on May 10, 1999, 1:33 a.m. from Launch Complex 7.

For more information about the launch, click the button.

Launch to space Long March 4B | Feng Yun 1C
Long March 4B | Feng Yun 1C

Agency: N/A

Status: Launch Successful

Launch date: May 10, 1999, 1:33 a.m. UTC

Rocket: Long March 4B

Launch pad: Launch Complex 7

Location: Taiyuan Satellite Launch Center, People's Republic of China

...

Latest news about this satellite

There are no fresh news available about this satellite. Check back as we update our databases every day.


Newsletter sign-up

Weekly statistics, charts and insights to help you stay on top of the space industry.